Terminal Aerodrome Forecast
Issued by NWS

Home | Current Version | Previous Version | Graphics & Text | Print | Product List | Glossary On
Versions: 1 2 3 4 5 6 7 8 9 10 11 12 13 14 15
000
FTUS43 KUNR 271100
TAFGCC
TAF
KGCC 271123Z 2712/2812 27015KT P6SM OVC080
     FM271700 31015G25KT P6SM BKN120
     FM280100 22011KT P6SM OVC250=

USA.gov is the U.S. government's official web portal to all federal, state and local government web resources and services.